Flag for U.S.A. Weather past 2 weeks in Orlando, Florida, U.S.A.

Now
74 °F

Passing clouds.


Feels Like: 74 °F
Forecast: 69 / 83 °F
Wind: 5 mph from Southwest

Location: Orlando Executive Airport

Current Time: Oct 21, 2014 at 3:27:22 AM

Latest Report: Oct 21, 2014 at 2:53 AM


Visibility: 10 mi

Pressure: 29.96 "Hg

Humidity: 82%

Dew point: 68 °F

Location of OrlandoLocation

Historic Weather in Orlando — Graph

°F

Orlando temperature yesterday

Maximum temperature yesterday: 86 °F (at 2:53 PM)
Minimum temperature yesterday: 68 °F (at 5:53 AM)
Average temperature yesterday: 76 °F

Past Weeks' High & Low Weather Summary

 TemperatureHumidityPressure
High90 °F (Oct 11, 2:53 PM)97% (Oct 19, 6:53 AM)30.16 "Hg (Oct 19, 6:53 AM)
Low62 °F (Oct 17, 7:53 AM)41% (Oct 17, 4:53 PM)29.89 "Hg (Oct 16, 4:53 PM)
Average77 °F70%30.03 "Hg
* Reported Oct 6 1:53 AM — Oct 21 1:53 AM, Orlando, Weather by CustomWeather, © 2014

Note: Actual official high and low records may vary slightly from our data, if they occured in-between our weather recording intervals... More about our weather records

Advertising

Orlando weather history for previous 24 hours

 ConditionsComfort  
Time TempWeatherWind HumidityBarometerVisibility
1:53 AM
Oct 21
73 °FPassing clouds.3 mph81%29.97 "Hg10 mi
12:53 AM74 °FClear.No wind79%29.98 "Hg10 mi
11:53 PM
Oct 20
74 °FClear.No wind79%30.00 "Hg10 mi
10:53 PM74 °FClear.3 mph82%29.99 "Hg10 mi
9:53 PM75 °FClear.5 mph79%30.00 "Hg10 mi
8:53 PM76 °FClear.5 mph80%29.99 "Hg10 mi
7:53 PM77 °FClear.6 mph77%29.98 "Hg10 mi
6:53 PM79 °FPassing clouds.12 mph72%29.96 "Hg10 mi
5:53 PM83 °FPartly sunny.9 mph61%29.96 "Hg10 mi
4:53 PM84 °FSunny.5 mph48%29.96 "Hg10 mi
3:53 PM85 °FPartly sunny.6 mph45%29.97 "Hg10 mi
2:53 PM86 °FPartly sunny.No wind46%29.98 "Hg10 mi
1:53 PM83 °FPassing clouds.3 mph51%30.01 "Hg10 mi
12:53 PM83 °FScattered clouds.5 mph53%30.03 "Hg10 mi
11:53 AM82 °FPassing clouds.3 mph56%30.06 "Hg10 mi
10:53 AM81 °FSunny.5 mph62%30.08 "Hg10 mi
9:53 AM77 °FSunny.6 mph79%30.08 "Hg10 mi
8:53 AM73 °FSunny.5 mph84%30.07 "Hg10 mi
7:53 AM68 °FClear.No wind93%30.05 "Hg10 mi
6:53 AM68 °FClear.No wind93%30.04 "Hg10 mi
5:53 AM68 °FClear.No wind93%30.02 "Hg10 mi
4:53 AM70 °FClear.No wind87%30.02 "Hg10 mi
3:53 AM70 °FClear.3 mph84%30.03 "Hg10 mi
Weather by CustomWeather, © 2014

See weather overviewHow to use our weather pages